Weather History for Detroit, MI

Change the Weather History Date:

Thursday, December 6, 2012

  Actual Average Record
Temperature  
Mean Temperature 32 °F -  
Max Temperature 39 °F 39 °F 68 °F (1998)
Min Temperature 26 °F 27 °F 10 °F (1958)
Degree Days  
Heating Degree Days 32    
Moisture  
Dew Point 27 °F    
Average Humidity 77    
Maximum Humidity 88    
Minimum Humidity 67    
Precipitation  
Precipitation 0.00 in - - ()
Sea Level Pressure  
Sea Level Pressure 30.19 in    
Wind  
Wind Speed 4 mph (SSE)    
Max Wind Speed 12 mph    
Max Gust Speed 16 mph    
Visibility 10 miles    
Events      
Averages and records for this station are not official NWS values.
T = Trace of Precipitation, MM = Missing Value Source: NWS Daily Summary

Daily Weather History Graph

Daily Weather History Graph

Search for Another Location

Airport:

Trip Planner

Search our weather history database for the weather conditions in past years. The results will help you decide how hot, cold, wet, or windy it might be!

Date:

Astronomy

Dec. 06, 2012 Rise Set
Actual Time 7:47 AM EST 4:59 PM EST
Civil Twilight 7:15 AM EST 5:30 PM EST
Nautical Twilight 6:40 AM EST 6:06 PM EST
Astronomical Twilight 6:06 AM EST 6:40 PM EST
Moon No Moon Rise 12:32 PM EST (12/6)
Length of Visible Light 10h 15m
Length of Day
9h 11m
Waning Gibbous, 49% of the Moon is Illuminated
Dec 6
Waning Gibbous
Dec 13
New
Dec 20
First Quarter
Dec 28
Full
Jan 4
Last Quarter

Hourly Weather History & Observations

Time (EST) Temp. Windchill Dew Point Humidity Pressure Visibility Wind Dir Wind Speed Gust Speed Precip Events Conditions
12:53 AM 27.0 °F - 21.0 °F 78% 30.38 in 10.0 mi Calm Calm - N/A   Clear
1:53 AM 27.0 °F - 21.0 °F 78% 30.37 in 10.0 mi Calm Calm - N/A   Clear
2:53 AM 28.0 °F 21.7 °F 21.9 °F 78% 30.35 in 10.0 mi SE 5.8 mph - N/A   Clear
3:53 AM 28.9 °F - 21.9 °F 75% 30.35 in 10.0 mi Calm Calm - N/A   Clear
4:53 AM 27.0 °F - 21.9 °F 81% 30.34 in 10.0 mi Calm Calm - N/A   Clear
5:53 AM 28.9 °F 22.8 °F 24.1 °F 82% 30.32 in 10.0 mi SE 5.8 mph - N/A   Clear
6:10 AM 28.4 °F 24.6 °F 24.8 °F 86% 30.29 in 10.0 mi East 3.5 mph - N/A   Mostly Cloudy
6:34 AM 28.4 °F - 24.8 °F 86% 30.28 in 10.0 mi Calm Calm - N/A   Scattered Clouds
6:53 AM 27.0 °F - 23.0 °F 85% 30.30 in 10.0 mi Calm Calm - N/A   Clear
7:53 AM 26.1 °F - 23.0 °F 88% 30.29 in 10.0 mi Calm Calm - N/A   Clear
8:43 AM 30.2 °F 26.7 °F 26.6 °F 86% 30.25 in 10.0 mi SSE 3.5 mph - N/A   Mostly Cloudy
8:53 AM 32.0 °F 26.4 °F 28.0 °F 85% 30.27 in 10.0 mi SE 5.8 mph - N/A   Overcast
9:53 AM 34.0 °F 28.0 °F 28.9 °F 82% 30.25 in 10.0 mi SSE 6.9 mph - N/A   Overcast
10:28 AM 35.6 °F 29.2 °F 30.2 °F 81% 30.21 in 10.0 mi SSE 8.1 mph - N/A   Scattered Clouds
10:53 AM 36.0 °F 28.5 °F 30.0 °F 79% 30.23 in 10.0 mi South 10.4 mph 16.1 mph N/A   Scattered Clouds
11:08 AM 37.4 °F 29.8 °F 30.2 °F 75% 30.20 in 10.0 mi South 11.5 mph - N/A   Mostly Cloudy
11:23 AM 37.4 °F 29.8 °F 28.4 °F 70% 30.20 in 10.0 mi SSE 11.5 mph - N/A   Scattered Clouds
11:30 AM 37.4 °F 30.3 °F 28.4 °F 70% 30.19 in 10.0 mi South 10.4 mph - N/A   Mostly Cloudy
11:37 AM 37.4 °F 29.8 °F 28.4 °F 70% 30.18 in 10.0 mi South 11.5 mph - N/A   Scattered Clouds
11:53 AM 37.0 °F 29.8 °F 28.9 °F 73% 30.19 in 10.0 mi SSE 10.4 mph - N/A   Partly Cloudy
12:22 PM 37.4 °F 31.4 °F 28.4 °F 70% 30.16 in 10.0 mi SSW 8.1 mph - N/A   Mostly Cloudy
12:46 PM 37.4 °F 30.3 °F 28.4 °F 70% 30.14 in 10.0 mi South 10.4 mph - N/A   Scattered Clouds
12:53 PM 37.9 °F 31.5 °F 28.9 °F 70% 30.16 in 10.0 mi South 9.2 mph - N/A   Partly Cloudy
1:53 PM 39.0 °F 33.4 °F 28.9 °F 67% 30.12 in 10.0 mi South 8.1 mph - N/A   Clear
2:53 PM 39.0 °F - 28.9 °F 67% 30.10 in 10.0 mi Calm Calm - N/A   Clear
3:53 PM 37.9 °F 33.5 °F 28.0 °F 68% 30.09 in 10.0 mi SSE 5.8 mph - N/A   Clear
4:53 PM 37.0 °F 32.4 °F 28.0 °F 70% 30.08 in 10.0 mi South 5.8 mph - N/A   Clear
5:53 PM 36.0 °F 29.0 °F 28.0 °F 73% 30.06 in 10.0 mi South 9.2 mph - N/A   Clear
6:53 PM 35.1 °F 31.0 °F 28.0 °F 76% 30.07 in 10.0 mi South 4.6 mph - N/A   Clear
7:53 PM 35.1 °F 30.1 °F 28.9 °F 78% 30.06 in 10.0 mi South 5.8 mph - N/A   Clear
8:53 PM 35.1 °F 32.2 °F 30.0 °F 82% 30.04 in 10.0 mi South 3.5 mph - N/A   Clear
9:53 PM 36.0 °F 33.3 °F 30.0 °F 79% 30.02 in 10.0 mi SSW 3.5 mph - N/A   Clear
10:53 PM 36.0 °F 33.3 °F 30.9 °F 82% 30.01 in 10.0 mi South 3.5 mph - N/A   Clear
11:53 PM 37.0 °F 33.3 °F 32.0 °F 82% 30.00 in 10.0 mi South 4.6 mph - N/A   Clear